Location: Beuerbach
(48.1459°N, 10.9174°E)
Time: 03:40:54
(UTC+00:00)

Cosmos 1455 - Pass Details

Date: 15 August 2024
Orbit: 431 x 444 km, 82.5° (Epoch: 11 September)

Event Time Altitude Azimuth Distance (km) Brightness Sun altitude
Exits shadow 02:41:36 18° 190° (S) 1,160 3.5 -13.6°
Maximum altitude 02:44:02 86° 278° (W) 453 1.8 -13.3°
Drops below altitude 10° 02:47:28 10° 9° (N) 1,572 5.4 -12.9°
Sets 02:49:31 0° 9° (N) 2,443 6.4 -12.6°
